Regional Weather Roundup
Issued by NWS Little Rock, AR

Home | Current Version | Previous Version | Text Only | Print | Product List | Glossary Off
Versions: 1 2 3 4 5 6 7 8 9 10 11 12 13 14 15 16 17 18 19 20 21 22 23 24 25 26 27

000
ASUS44 KLZK 040505
RWRLZK

WEATHER ROUNDUP FOR ARKANSAS
NATIONAL WEATHER SERVICE LITTLE ROCK AR
1200 AM CDT WED MAY 04 2016

NOTE: "FAIR" INDICATES FEW OR NO CLOUDS BELOW 12,000 FEET WITH NO
SIGNIFICANT WEATHER AND/OR OBSTRUCTIONS TO VISIBILITY.

ARZ001-003-010-029-040600-
NORTHWEST ARKANSAS

CITY           SKY/WX    TMP DP  RH WIND       PRES   REMARKS
FAYETTEVILLE   CLEAR     46  45  96 S6        30.02F
FORT SMITH     CLEAR     54  46  74 W7        30.02F
HARRISON       CLEAR     50  40  68 SW5       30.00F
BENTONVILLE    CLEAR     52  41  66 CALM      30.02S
ROGERS         CLEAR     54  43  66 SW5       30.01F
SILOAM SPGS    CLEAR     50  37  62 S6        30.03S
$$

ARZ004-005-016-040600-
NORTH CENTRAL ARKANSAS

CITY           SKY/WX    TMP DP  RH WIND       PRES   REMARKS
BATESVILLE     CLEAR     52  45  76 NW5       29.98F
FLIPPIN        CLEAR    N/A N/A N/A CALM      29.96S
MTN HOME       CLEAR     51  43  74 CALM      29.97F
$$

ARZ040-041-040600-
WEST CENTRAL ARKANSAS

CITY           SKY/WX    TMP DP  RH WIND       PRES   REMARKS
MENA           PTCLDY    50  48  93 CALM      30.04S
MOUNT IDA      CLEAR     50  47  89 CALM      30.00S
$$

ARZ009-017-025-026-028-040600-
NORTHEAST ARKANSAS

CITY           SKY/WX    TMP DP  RH WIND       PRES   REMARKS
CORNING          N/A     54  54 100 CALM      29.96S
JONESBORO      CLEAR     53  49  86 W5        29.95F
NEWPORT        CLEAR     56  50  80 W6        29.98S
WALNUT RIDGE   CLEAR     54  45  71 NW5       29.95F
BLYTHEVILLE    CLEAR     56  52  86 CALM      29.95F
$$

ARZ022-023-033-042-044-040600-
CENTRAL ARKANSAS

CITY           SKY/WX    TMP DP  RH WIND       PRES   REMARKS
LITTLE ROCK    CLEAR     55  50  83 SW6       30.00S
JACKSONVILLE   CLEAR     52  49  89 W1        29.98F
SEARCY         CLEAR     52  48  87 CALM      30.00F
HOT SPRINGS    PTCLDY    53  49  86 W3        30.02S
RUSSELLVILLE   CLEAR     50  48  93 CALM      30.00F
$$

ARZ036-040600-
EAST ARKANSAS

CITY           SKY/WX    TMP DP  RH WIND       PRES   REMARKS
WEST MEMPHIS   CLEAR     57  51  80 SW3       29.95F
$$

ARZ050-053-066-070-073-040600-
SOUTHWEST ARKANSAS

CITY           SKY/WX    TMP DP  RH WIND       PRES   REMARKS
ARKADELPHIA    FAIR      58  58 100 CALM      30.02F
CAMDEN         CLEAR     50  48  93 CALM      30.02S
TEXARKANA      CLEAR     56  50  80 CALM      30.03F
EL DORADO      CLEAR     52  51  97 CALM      30.03S
DE QUEEN       CLEAR     51  49  92 CALM      30.02S
$$

ARZ056-057-069-040600-
SOUTHEAST ARKANSAS

CITY           SKY/WX    TMP DP  RH WIND       PRES   REMARKS
PINE BLUFF     CLEAR     55  50  83 W3        30.00S
STUTTGART      CLEAR     57  50  77 W6        29.99F
MONTICELLO     CLEAR     52  50  93 W3        30.00S

$$






USA.gov is the U.S. government's official web portal to all federal, state and local government web resources and services.